Weather in Sukhaya Lubna

Russia / Lipetsk Oblast     52°48′00″N   39°20′33″E
temp.,
°C
wind,
m/s
gust,
m/s
humid.,
%
clouds,
%
prec.,
mm/h
press.,
hPa
HPBL,
m
20 june, sun
sun2000:00+16ese22820 0.0 102413
03:00+14ese22850 0.0 102513
06:00+16ese24840 0.0 1024101
09:00+21ese35690 0.0 1024508
12:00+24ese45561 0.0 10231009
15:00+26se4553100 0.0 10221165
18:00+25ese3571100 0.0 1021201
21:00+20ese3378100 0.0 102127
21 june, mon
mon2100:00+18ese3384100 0.0 102139
03:00+17e358591 0.0 102169
06:00+18e3685100 0.0 1021144
09:00+23ese586898 0.0 1021393
12:00+26ese5756100 0.0 1021792
15:00+27se5660100 0.0 1020892
18:00+25ese3674100 0.0 1020182
21:00+22ese3680100 0.0 102080
22 june, tue
tue2200:00+20ese368678 0.0 102091
03:00+18ese35875 0.0 102169
06:00+19ese37853 0.0 1021148
09:00+24ese46681 0.0 1021369
12:00+28ese45540 0.0 1021902
15:00+29ese455355 0.0 10211259
18:00+27e3670100 0.0 1020229
21:00+23e34766 0.0 102149
23 june, wed
wed2300:00+21e34794 0.0 102148
03:00+20e34810 0.0 102164
06:00+20e38830 0.0 1021155
09:00+25ene57671 0.0 1021334
12:00+29e45505 0.0 1021929
15:00+30e444911 0.0 10211207
18:00+29e34659 0.0 1021211
21:00+24e337229 0.0 102120
24 june, thu
thu2400:00+22e337637 0.0 102134
03:00+21e238158 0.0 102125
06:00+22ene348415 0.0 1022102
09:00+26ese356799 0.0 1021377
12:00+29ese3455100 0.0 1021927
15:00+30e225095 0.0 10201336
18:00+29ne34655 0.0 1020219
21:00+24e22745 0.0 101917